Погода в Вольштыне

Польша     52°06′57″N   16°06′48″E
темп.,
°C
ветер,
м/с
пор.,
м/с
влажн.,
%
обл.,
%
осадки,
мм/ч
давл.,
гПа
погр.,
м
25 февраля, чт
чт2501:00+8юз23870 0.0 103132
04:00+7юз23880 0.0 103030
07:00+7ююз23880 0.0 102936
10:00+12ююз36660 0.0 1028259
13:00+16юз36570 0.0 1027411
16:00+16юз36620 0.0 1026220
19:00+11зюз38800 0.0 1027169
22:00+9зюз38880 0.0 1027162
26 февраля, пт
пт2601:00+8з37930 0.0 1028155
04:00+7з359533 0.0 102899
07:00+6зсз239656 0.0 102870
10:00+7зсз2593100 0.3 1029255
13:00+7з3784100 0.9 1029311
16:00+7з4876100 0.2 1028631
19:00+5з388987 0.2 1029215
22:00+5зсз4108260 0.1 1029362
27 февраля, сб
сб2701:00+4зсз4118467 0.1 1030444
04:00+2зсз411910 0.0 1029422
07:00+2зсз599119 0.0 1030583
10:00+3сз5887100 0.0 1032697
13:00+5зсз467799 0.1 1033739
16:00+6сз467396 0.0 1033806
19:00+3з368783 0.0 1034170
22:00+2зсз34940 0.0 103598
28 февраля, вс
вс2801:00+1зсз23938 0.0 103659
04:000зсз23910 0.0 103549
07:000з24940 0.0 1035107
10:00+4зсз347946 0.0 1035354
13:00+7зсз235924 0.0 1034705
16:00+8зсз23590 0.0 1034797
19:00+4сз11812 0.0 103422
22:00+3ссз118820 0.0 103622
1 марта, пн
пн101:00+3юв118647 0.0 103622
04:00+2ююв229068 0.0 103624
07:00+1юв228939 0.0 103722
10:00+6ююв23670 0.0 1038317
13:00+9юв23520 0.0 1038909
16:00+9юв34550 0.0 1038910
19:00+5вюв35740 0.0 1038100
22:00+3юв36830 0.0 1039161